Probability
0 0 0 0 0 0 0 0 0 0 0 0 0 0 0 0 0 0 1 1 1 2 4 10 15 18 17 14 12 11 9 6 4 5 5 5 6 6 5 4 4 3 3 3 3 3 3 3 3
0 0 0 0 0 0 0 0 0 0 0 0 0 0 0 0 0 0 1 1 1 3 6 10 14 17 16 13 12 10 8 5 4 4 4 4 4 5 6 5 4 3 3 3 3 3 3 3 3
0 0 0 0 0 0 0 0 0 0 0 0 0 0 0 0 0 0 1 1 2 4 7 11 13 15 15 13 11 9 7 4 3 3 3 3 4 5 5 5 5 4 3 3 3 3 3 3 3
0 0 0 0 0 0 0 0 0 0 0 0 0 0 0 0 0 1 2 2 3 5 8 11 12 13 13 13 12 10 7 5 4 3 3 4 5 5 4 4 4 3 3 3 3 3 3 3 3
0 0 0 0 0 0 0 0 0 0 0 0 0 0 0 0 1 3 4 3 4 6 8 10 12 12 11 13 14 12 10 8 6 5 4 5 5 4 4 4 4 3 3 3 3 3 3 3 3
0 0 0 0 0 0 0 0 0 0 0 0 0 0 0 0 1 3 3 3 4 6 8 10 12 12 10 12 14 13 11 10 9 8 7 6 5 5 5 5 5 4 3 3 3 3 3 3 3
0 0 0 0 0 0 0 0 0 0 0 0 0 0 0 0 1 2 3 4 4 5 6 8 10 11 9 9 9 10 9 10 10 10 8 6 5 6 6 6 5 4 4 3 3 3 3 3 3
0 0 0 0 0 0 0 0 0 0 0 0 0 0 0 1 1 3 4 5 5 3 3 5 7 8 8 7 5 5 6 7 9 9 6 4 4 4 5 4 4 5 5 4 3 3 3 2 1
0 0 0 0 0 0 0 0 0 0 0 0 0 0 1 3 4 5 6 6 5 2 1 3 5 6 6 5 4 4 4 5 6 5 3 3 2 2 3 3 3 5 4 3 2 2 1 1 0
0 0 0 0 0 0 0 0 0 0 0 0 0 1 3 5 6 6 6 6 4 2 1 2 4 4 4 3 3 4 4 4 4 2 1 2 2 2 1 1 1 2 2 1 1 1 1 0 0
0 0 0 0 0 0 0 0 0 0 0 0 0 2 3 4 5 6 6 5 3 2 1 2 3 3 3 1 2 3 3 3 2 1 0 1 2 2 1 0 0 0 0 0 0 0 0 0 0
0 0 0 0 0 0 0 0 0 0 0 0 0 1 2 3 4 5 5 5 3 2 2 2 3 3 2 1 1 2 3 3 3 1 0 0 1 2 2 1 0 0 0 0 0 0 0 0 0
0 0 0 0 0 0 0 0 0 0 0 0 0 0 0 1 3 4 4 4 3 2 1 1 1 1 1 0 1 2 3 3 3 2 1 0 0 1 2 2 1 0 0 0 0 0 0 0 0
0 0 0 0 0 0 0 0 0 0 0 0 0 0 0 0 1 2 3 5 5 3 1 0 0 0 0 0 1 2 3 3 3 2 1 0 0 1 2 2 1 0 0 0 0 0 0 0 0
0 0 0 0 0 0 0 0 0 0 0 0 0 0 0 0 0 1 3 5 6 4 2 1 1 0 0 0 0 1 2 3 3 2 1 0 0 0 1 1 0 0 0 0 0 0 0 0 0
0 0 0 0 0 0 0 0 0 0 0 0 0 0 0 0 0 1 2 4 5 4 3 2 1 1 0 0 0 0 1 1 2 2 1 0 0 0 0 0 0 0 0 0 0 0 0 0 0
0 0 0 0 0 0 0 0 0 0 0 0 0 0 0 0 0 0 1 2 3 3 2 1 1 1 0 0 0 0 0 0 1 1 1 0 0 0 0 0 0 0 0 0 0 0 0 0 0
0 0 0 0 0 0 0 0 0 0 0 0 0 0 0 0 0 0 0 1 2 2 1 0 0 0 0 0 0 0 0 0 0 0 0 0 0 0 0 1 1 1 0 0 0 0 0 0 0
0 0 0 0 0 0 0 0 0 0 0 0 0 0 0 0 0 0 0 0 1 1 1 0 0 0 0 0 0 0 0 0 0 0 0 0 0 0 0 1 1 1 0 0 0 0 0 0 0
0 0 0 0 0 0 0 0 0 0 0 0 0 0 0 0 0 0 0 0 1 2 2 1 0 0 0 0 0 0 0 0 0 0 0 0 1 0 0 0 0 0 0 0 0 0 0 0 0
0 0 0 0 0 0 0 0 0 0 0 0 0 0 0 0 0 0 0 0 1 2 3 2 1 0 0 0 0 0 0 0 0 0 0 0 0 0 0 0 0 0 0 0 0 0 0 0 0
0 0 0 0 0 0 0 0 0 0 0 0 0 0 0 0 0 0 0 0 0 1 2 2 1 1 1 0 0 0 0 0 0 0 0 0 0 0 0 0 0 0 0 0 0 0 0 0 0
0 0 0 0 0 0 0 0 0 0 0 0 0 0 0 0 0 0 0 0 0 0 1 2 3 2 1 0 0 0 0 0 0 0 0 0 0 0 0 0 0 0 0 0 0 0 0 0 0
0 0 0 0 0 0 0 0 0 0 0 0 0 0 0 0 0 0 0 0 0 0 1 2 3 3 2 1 0 0 0 0 0 0 0 0 0 0 0 0 0 0 0 0 0 0 0 0 0
0 0 0 0 0 0 0 0 0 0 0 0 0 0 0 0 0 0 0 0 0 0 1 2 2 2 2 2 1 0 0 0 0 0 0 0 0 0 0 0 0 0 0 0 0 0 0 0 0
0 0 0 0 0 0 0 0 0 0 0 0 0 0 0 0 0 0 0 0 0 0 0 1 1 1 2 2 1 0 0 0 0 0 0 0 0 0 0 0 0 0 0 0 0 0 0 0 0
0 0 0 0 0 0 0 0 0 0 0 0 0 0 0 0 0 0 0 0 0 0 0 0 0 0 1 1 0 0 0 0 0 0 0 0 0 0 0 0 0 0 0 0 0 0 0 0 0
0 0 0 0 0 0 0 0 0 0 0 0 0 0 0 0 0 0 0 0 0 0 0 0 0 0 0 0 0 0 0 0 0 0 0 0 0 0 0 0 0 0 0 0 0 0 0 0 0
0 0 0 0 0 0 0 0 0 0 0 0 0 0 0 0 0 0 0 0 0 0 0 0 0 0 0 0 0 0 0 0 0 0 0 0 0 0 0 0 0 0 0 0 0 0 0 0 0
0 0 0 0 0 0 0 0 0 0 0 0 0 0 0 0 0 0 0 0 0 0 0 0 0 0 0 0 0 0 0 0 0 0 0 0 0 0 0 0 0 0 0 0 0 0 0 0 0
Wind_Speed
8 4 2 4 5 4 3 4 2 0 0 0 1 5 5 3 2 3 1 2 6 6 5 5 7 9 9 10 10 10 10 10 10 10 10 10 10 10 10 10 9 10 10 11 11 11 11 11 11
3 2 4 5 4 2 4 3 2 3 3 1 2 3 4 3 2 4 1 2 7 7 5 5 7 8 9 9 9 9 9 9 9 9 9 9 9 10 10 10 10 10 10 11 11 11 11 11 11
3 2 4 4 3 6 5 3 4 2 1 1 2 3 2 2 2 3 2 5 7 6 4 5 8 9 9 9 9 9 9 9 9 9 9 9 9 10 10 10 10 10 10 10 10 10 10 10 10
3 4 4 3 4 6 5 3 3 2 1 1 3 3 2 1 2 3 4 6 7 5 4 5 7 9 9 9 9 9 9 9 8 8 8 8 9 9 9 9 9 9 9 9 9 9 9 9 9
4 4 3 2 6 4 2 2 1 1 0 0 3 3 1 3 2 5 6 7 7 5 4 5 7 8 8 9 8 8 8 8 8 8 8 8 8 9 9 9 9 9 8 8 8 9 9 9 9
3 3 3 5 7 3 2 1 2 1 1 1 3 3 1 1 3 4 5 5 6 6 5 4 6 7 7 8 8 8 7 8 8 8 7 8 8 9 8 8 8 8 8 7 8 8 8 8 8
3 3 4 5 4 3 3 1 2 1 1 1 2 3 1 1 0 3 5 5 5 5 4 3 4 5 6 7 7 7 7 7 7 7 7 7 7 8 8 7 7 7 7 7 7 7 7 8 7
3 3 2 4 4 3 2 1 1 2 3 2 2 4 3 2 1 3 5 5 5 4 4 3 3 3 3 4 5 6 6 7 7 7 6 7 7 7 7 6 6 7 7 7 7 7 7 7 7
3 2 4 5 5 3 1 1 2 1 1 1 2 1 2 4 4 5 4 4 3 3 2 2 3 3 3 3 4 5 5 6 6 6 7 6 3 3 4 5 6 7 7 6 7 7 6 6 5
3 3 6 4 2 2 0 0 1 1 1 1 2 3 2 5 5 5 4 3 2 2 1 2 3 3 3 2 3 2 2 3 3 3 4 3 3 3 4 5 7 7 7 6 6 7 6 4 2
2 5 4 3 1 1 1 1 1 2 2 3 2 1 2 4 4 4 3 3 3 3 2 2 2 3 3 2 2 1 1 2 2 3 3 3 3 2 3 2 3 3 4 3 3 4 2 2 2
1 2 3 3 2 1 2 1 1 3 5 2 2 4 3 3 4 5 4 3 2 2 2 2 2 3 3 2 2 2 2 2 2 3 3 3 2 2 2 2 2 2 2 2 2 2 2 2 2
2 2 2 2 2 1 1 2 3 5 4 1 2 3 3 3 3 3 3 3 3 3 2 1 2 3 3 2 2 2 2 2 2 2 3 3 3 3 3 2 2 2 2 2 1 1 2 2 2
2 2 3 3 2 2 1 3 2 6 2 1 2 3 3 4 4 2 2 2 3 3 3 2 2 3 3 2 2 2 2 2 2 2 3 4 3 3 3 3 2 2 2 2 2 1 2 1 1
1 2 4 3 2 2 1 4 6 6 2 2 3 3 3 3 2 2 3 3 3 3 2 2 2 2 3 3 3 2 2 2 3 3 3 4 4 4 3 3 3 2 2 2 2 1 1 1 1
1 0 3 4 2 2 2 8 6 3 2 3 3 2 2 2 1 1 1 1 2 2 2 1 1 2 2 2 2 2 2 3 3 2 3 4 4 4 3 3 3 2 2 2 2 2 1 1 1
1 2 4 4 2 1 4 7 6 3 3 4 3 3 3 2 1 1 0 1 1 1 1 1 1 1 1 2 1 2 2 2 2 2 2 3 4 5 4 3 3 3 3 2 2 2 1 1 1
3 3 4 5 3 2 5 8 6 3 3 5 4 4 3 3 2 1 0 1 2 2 3 2 1 1 0 0 1 1 1 1 2 2 3 3 4 4 4 3 4 3 3 2 2 2 2 1 1
3 3 5 5 2 2 6 8 8 5 4 5 5 4 4 3 1 1 1 1 2 3 3 2 2 2 1 1 1 1 1 1 1 2 3 3 4 4 4 3 4 3 3 4 4 3 3 1 1
4 5 6 5 2 2 5 9 8 6 6 6 6 5 4 2 0 1 1 2 2 2 2 2 1 1 1 0 1 1 1 1 1 1 2 3 3 4 4 4 3 4 3 4 4 3 2 1 1
6 7 6 5 4 3 3 7 5 5 4 3 4 4 4 4 3 2 1 0 1 1 0 0 1 1 1 1 1 1 1 1 1 0 1 2 3 3 4 4 3 3 4 4 4 4 4 3 2
7 5 5 5 2 4 2 6 6 4 4 5 5 4 4 3 3 2 2 1 1 1 0 1 0 1 1 1 1 1 1 1 1 1 1 1 2 3 3 4 4 4 3 3 4 3 3 3 3
5 3 4 4 4 3 3 4 8 2 4 6 5 5 4 3 4 3 3 2 1 1 0 0 1 1 1 1 1 1 0 1 0 1 1 1 1 2 2 3 3 4 3 4 4 4 3 3 3
1 1 2 1 1 5 6 6 8 4 6 4 4 4 4 3 2 2 1 1 1 1 1 1 1 1 1 1 1 0 0 0 1 1 1 1 1 1 2 2 3 3 3 3 4 4 4 3 3
1 3 2 3 2 7 3 5 9 6 4 5 5 4 3 2 2 2 2 1 1 1 1 1 1 1 1 1 1 1 1 1 2 2 2 2 1 1 2 2 2 3 3 3 3 4 4 4 4
3 5 5 5 5 5 2 7 6 3 2 1 0 0 1 1 1 2 2 2 1 0 0 0 0 1 1 0 1 1 1 1 1 1 1 1 2 2 1 2 2 2 2 3 3 3 3 3 3
2 3 3 2 1 3 6 6 6 2 2 2 2 2 1 1 1 1 1 1 1 1 0 1 0 1 1 1 1 1 1 1 1 1 1 1 1 1 1 1 1 1 1 2 2 2 3 3 3
1 2 2 3 3 5 6 5 5 3 3 2 1 1 1 1 0 0 0 0 0 0 0 0 0 0 1 1 1 1 1 1 1 1 1 1 1 1 1 2 1 1 1 2 2 2 2 3 3
1 1 2 2 3 4 5 6 3 4 3 3 3 2 1 1 1 1 1 0 0 1 1 1 1 1 2 2 2 2 2 1 1 1 1 1 1 1 1 2 2 2 2 2 2 2 2 3 3
3 4 4 4 5 4 4 7 1 1 1 1 2 3 2 1 1 1 1 0 0 1 1 1 1 1 2 1 1 1 2 1 1 1 1 1 1 1 1 1 1 2 2 2 3 3 3 3 4
Wind_Direction
329 339 63 59 58 56 241 249 213 288 42 271 79 98 110 112 127 155 189 112 121 136 146 143 136 133 130 127 124 122 121 120 119 117 114 112 109 106 107 106 106 106 103 101 99 97 94 92 91
330 6 56 65 100 180 253 240 212 221 190 146 63 78 86 85 87 117 123 125 130 136 140 144 132 130 131 130 129 126 126 126 125 123 119 117 116 113 110 106 102 102 102 101 101 100 98 95 92
324 72 84 85 149 197 211 211 195 209 177 119 65 49 93 126 143 156 163 133 127 128 134 139 133 136 136 133 132 132 131 131 129 127 124 122 123 118 112 108 106 101 100 102 103 103 100 97 94
53 52 65 97 215 224 207 207 170 148 22 56 110 68 55 22 164 159 132 124 124 126 133 137 135 140 139 135 135 135 136 135 133 131 129 127 126 121 116 113 110 106 103 106 108 107 102 98 95
62 84 92 219 236 244 228 223 158 122 176 51 109 115 69 352 64 109 120 125 126 125 126 139 137 140 140 135 134 136 136 136 136 134 133 132 128 123 117 113 112 111 107 110 115 112 107 102 98
64 85 139 221 233 238 255 247 120 106 261 17 102 129 160 7 86 109 116 122 127 128 122 129 135 138 140 138 134 135 135 135 132 132 129 129 124 119 118 117 116 116 114 115 119 115 113 107 100
119 127 196 215 224 236 241 196 149 169 266 264 141 130 158 354 135 121 116 112 114 115 119 125 138 142 141 136 132 132 133 133 129 123 120 119 118 115 113 114 117 118 118 115 118 116 114 109 100
138 123 222 227 217 241 274 148 169 185 229 278 117 148 199 218 161 106 101 97 99 101 109 120 124 127 133 138 134 133 131 130 127 118 114 110 112 112 109 111 119 119 117 119 122 116 112 108 101
103 110 220 224 205 227 274 82 339 340 92 359 43 152 195 140 117 94 81 75 84 91 99 114 121 129 135 139 136 131 129 127 124 118 114 110 105 108 108 106 111 112 108 114 127 121 112 102 95
115 192 228 232 191 174 203 148 211 51 16 3 22 14 73 113 121 119 120 125 125 133 137 129 137 138 136 144 137 137 128 130 124 117 119 116 109 106 104 107 104 101 96 98 121 116 109 95 84
151 203 226 252 243 203 245 292 282 151 229 215 195 190 133 131 133 148 163 165 173 174 163 162 155 150 147 143 141 138 128 125 127 129 130 125 116 110 101 105 106 99 93 80 97 103 95 91 95
203 264 246 258 282 277 260 246 281 221 223 221 181 157 155 157 174 180 189 189 178 170 182 185 162 151 158 153 155 152 144 138 142 148 144 138 132 129 130 125 121 111 100 93 89 98 101 98 100
238 266 296 300 341 293 253 243 248 261 255 254 129 146 178 193 207 207 196 187 171 176 184 192 163 159 163 153 162 158 161 159 162 158 155 148 144 151 148 142 135 128 113 113 109 111 118 109 99
234 267 274 270 275 257 213 273 256 257 242 202 168 192 206 216 219 216 199 190 190 185 185 177 164 168 161 159 164 171 171 167 164 168 168 156 154 158 155 148 148 143 138 138 139 143 143 135 119
266 313 305 271 235 224 163 288 243 245 223 242 237 230 217 223 219 209 204 194 198 196 183 173 177 164 166 171 173 170 174 171 171 177 174 165 158 162 162 158 160 160 152 141 127 123 111 114 118
3 300 278 272 224 218 180 258 258 236 204 240 249 245 219 219 217 214 200 186 184 167 157 165 155 165 176 177 180 181 180 174 178 178 179 175 165 161 161 161 172 162 149 144 139 131 114 108 103
1 251 251 275 237 208 200 249 267 252 207 231 237 234 217 216 259 275 252 120 97 107 127 131 95 133 187 189 179 178 171 170 173 170 175 181 172 166 165 168 172 161 152 147 151 142 143 136 131
221 233 249 252 266 225 239 253 276 269 215 232 234 232 223 217 232 252 53 74 81 75 70 67 65 72 101 151 139 133 134 163 169 173 175 173 172 168 164 168 168 162 154 151 151 149 140 148 159
209 219 246 258 268 242 241 256 266 261 245 248 241 232 231 229 253 45 48 64 68 58 57 56 52 43 72 125 174 182 197 197 191 183 172 171 169 166 163 165 166 167 172 170 158 146 146 147 133
237 245 264 286 310 260 266 268 261 242 235 230 228 225 223 223 333 20 50 61 70 74 60 55 29 44 56 291 239 218 201 202 190 186 176 173 172 170 169 164 174 173 170 166 165 150 149 167 164
239 232 245 269 317 297 300 294 261 251 232 235 229 215 202 193 196 209 187 150 92 75 62 27 355 5 4 14 23 71 78 65 106 186 212 190 178 177 176 173 174 174 172 177 180 175 167 178 196
244 235 239 248 261 268 228 281 275 251 248 242 236 223 217 203 185 191 194 193 199 232 259 353 0 27 21 66 87 129 171 192 216 207 212 215 189 177 181 177 176 177 176 179 185 184 178 169 187
242 249 232 231 222 259 231 238 277 260 246 246 234 222 222 209 193 193 192 202 214 213 159 8 23 33 23 41 101 145 270 244 169 155 181 190 200 183 181 183 181 182 185 187 183 184 185 183 185
254 25 24 45 140 251 221 206 267 232 224 237 228 226 225 210 195 187 154 97 57 49 54 59 57 27 24 27 33 158 220 262 160 185 196 200 212 214 191 188 189 192 191 192 192 190 190 193 187
78 102 29 339 283 249 220 214 248 242 222 210 220 225 218 185 160 143 119 118 84 49 37 63 82 7 8 14 349 295 250 212 202 210 211 199 205 236 225 205 205 206 206 202 194 191 196 193 189
226 171 175 210 236 272 253 234 252 264 287 304 289 115 110 137 172 182 184 175 172 161 20 30 347 314 328 322 312 317 318 264 254 251 235 225 227 226 227 224 213 214 207 200 190 192 199 195 197
204 215 200 181 266 264 253 268 293 299 352 17 32 52 66 191 190 208 200 185 185 185 230 241 286 325 304 284 324 352 350 332 311 302 284 261 281 257 214 224 227 201 196 192 185 191 198 191 195
206 172 126 166 202 251 264 249 247 254 271 289 325 316 287 286 257 236 260 274 291 271 301 343 18 336 335 353 356 351 318 302 301 314 306 287 281 279 246 216 231 211 190 183 180 185 191 185 198
154 159 186 207 205 208 260 264 235 220 236 227 243 264 263 247 215 216 243 240 298 2 11 22 20 20 9 1 355 351 331 317 309 299 287 284 280 248 236 224 214 212 196 191 192 197 195 197 205
186 202 180 199 244 231 248 267 313 209 268 258 292 312 311 286 263 251 227 185 33 9 5 9 2 4 350 350 354 345 337 340 339 319 297 285 274 260 251 234 224 224 212 201 199 207 204 205 211